Regional Weather Roundup
Issued by NWS

Home | Current Version | Previous Version | Text Only | Print | Product List | Glossary Off
Versions: 1 2 3 4 5 6 7 8 9 10 11 12 13 14 15 16 17 18 19 20 21 22 23 24 25 26 27 28 29 30 31 32 33 34 35 36 37 38 39 40 41 42 43 44 45 46 47 48 49 50

000
ASUS45 KPSR 170310
RWRAZ

ARIZONA HOURLY REGIONAL WEATHER ROUNDUP
NATIONAL WEATHER SERVICE PHOENIX AZ
800 PM MST MON JAN 16 2017

NOTE: FAIR INDICATES FEW OR NO CLOUDS BELOW 12,000 FEET WITH NO
SIGNIFICANT WEATHER AND/OR OBSTRUCTIONS TO VISIBILITY.

AZZ001>003-036-170400-
NORTHWEST ARIZONA

CITY           SKY/WX    TMP DP  RH WIND       PRES   REMARKS
KINGMAN        CLEAR     38  24  57 E12       30.08R WCI  30
$$

AZZ004>008-015-016-018-170400-
NORTH CENTRAL ARIZONA

CITY           SKY/WX    TMP DP  RH WIND       PRES   REMARKS
GRAND CANYON   PTCLDY    30  28  92 CALM      30.08R
WILLIAMS       PTCLDY    30  30 100 SE5       30.07R WCI  25
PRESCOTT       PTCLDY    38  35  89 CALM      30.05R
FLAGSTAFF      MOCLDY    32  30  92 CALM      30.06R
PAYSON         CLOUDY    41  39  93 CALM      30.08S
PAGE           PTCLDY    42  28  57 CALM      30.06R
$$

AZZ009>014-017-170400-
NORTHEAST ARIZONA

CITY           SKY/WX    TMP DP  RH WIND       PRES   REMARKS
WINSLOW        CLOUDY    40  35  83 W5        30.04R
SAINT JOHNS    PTCLDY    36  33  89 W5        30.03S WCI  32
SHOW LOW       CLOUDY    32  32 100 S6        30.07R WCI  26
$$

AZZ023-170400-
GREATER PHOENIX AREA

CITY           SKY/WX    TMP DP  RH WIND       PRES   REMARKS
PHOENIX        PTCLDY    59  40  49 NW7       30.01R
BUCKEYE        CLEAR     54  32  43 NW8       30.03S
GLENDALE       PTCLDY    55  43  62 CALM      30.03S
LUKE AFB       CLEAR     52  45  76 NW5       30.01R
DEER VALLEY    CLEAR     53  43  68 N3        30.02R
SCOTTSDALE     CLEAR     56  41  57 CALM      30.03R
MESA-FALCON    MOCLDY   N/A N/A N/A W6        29.99
MESA-GATEWAY   PTCLDY    52  45  76 SE5       30.03S
CHANDLER       PTCLDY    57  45  62 CALM      30.02S
$$

AZZ027-028-170400-
SOUTHWEST MARICOPA COUNTY AND PINAL COUNTY

CITY           SKY/WX    TMP DP  RH WIND       PRES   REMARKS
CASA GRANDE    CLEAR     51  45  79 MISG        N/A
$$

AZZ503-504-507>509-170400-
SOUTHEAST ARIZONA

CITY           SKY/WX    TMP DP  RH WIND       PRES   REMARKS
TUCSON         CLEAR     50  43  77 SW6       30.04S
DAVIS-MONTHAN  CLEAR     49  44  82 W3        30.03R
RYAN FIELD     CLEAR     48  45  87 W5        30.05R
NOGALES        MOCLDY    47  37  68 N7        30.02R
SIERRA VISTA   MOCLDY    43  38  82 SW3       30.05R
DOUGLAS        MOCLDY    44  39  82 E5        30.02S
SAFFORD        PTCLDY    45  42  89 NW6       30.02R
$$

AZZ020-021-025-026-031-170400-
SOUTHWEST ARIZONA

CITY           SKY/WX    TMP DP  RH WIND       PRES   REMARKS
YUMA           CLEAR     58  30  34 N6        30.04S
$$

CAZ031-033-041-043-047-048-061-170400-
SOUTHERN CALIFORNIA

CITY           SKY/WX    TMP DP  RH WIND       PRES   REMARKS
DOWNTOWN L.A.  CLEAR     56  52  86 CALM      30.04R
L.A. AIRPORT   CLEAR     57  52  83 W9        30.04S
SAN DIEGO      PTCLDY    58  50  75 N5        30.06R
BURBANK        CLEAR     55  47  74 E3        30.03R
ONTARIO        CLEAR     56  45  66 SW3       30.04R
RIVERSIDE      CLEAR     54  18  24 N9        30.03S
PALM SPRINGS   CLEAR     61  27  27 W5        30.08R
EL CENTRO NAS  CLEAR     57  43  59 CALM      30.06R
IMPERIAL       PTCLDY    57  44  62 CALM      30.04R
BLYTHE         CLEAR     54  32  43 N8        30.06R
NEEDLES        CLEAR     54  24  31 NW7       30.07S
$$

NVZ020-UTZ003-170400-
SOUTHERN NEVADA-UTAH

CITY           SKY/WX    TMP DP  RH WIND       PRES   REMARKS
LAS VEGAS      CLEAR     51  15  23 NE8       30.09R
SALT LAKE CITY PTCLDY    24  19  81 NW5       30.29S WCI  18
$$

NMZ009-TXZ055-170400-
NEW MEXICO-WEST TEXAS

CITY           SKY/WX    TMP DP  RH WIND       PRES   REMARKS
ALBUQUERQUE    CLOUDY    43  39  86 SW8       30.07R
EL PASO        CLOUDY    49  37  63 CALM      30.04R
$$


........................KEY........................
SKY/WX - SKY CONDITION/WEATHER
TMP    - TEMPERATURE IN FAHRENHEIT
DP     - DEW POINT IN FAHRENHEIT
RH     - RELATIVE HUMIDITY IN PERCENT
WIND   - DIRECTION AND SPEED IN MILES PER HOUR (MPH)
VRB    - VARIABLE WIND DIRECTION
PRES   - MEAN SEA LEVEL PRESSURE IN INCHES OF MERCURY
         F - FALLING PRESSURE   R - RISING PRESSURE
         S - STEADY PRESSURE
VSB    - VISIBILITY IN MILES
HX     - HEAT INDEX IN FAHRENHEIT
WCI    - WIND CHILL INDEX IN FAHRENHEIT
TC     - TEMPERATURE IN CELSIUS WHICH IS ALSO KNOWN AS
         TEMPERATURE IN CENTIGRADE
AFB    - AIR FORCE BASE
         LUKE AFB IS LUKE AIR FORCE BASE
         DAVIS-MONTHAN IS DAVIS-MONTHAN AIR FORCE BASE
NAS    - NAVAL AIR STATION
         EL CENTRO NAS IS EL CENTRO NAVAL AIR STATION
N/A    - NOT AVAILABLE




USA.gov is the U.S. government's official web portal to all federal, state and local government web resources and services.